FW2438 Weather Reports


Display with metric or nautical units.
time (UTC)temp
F
wind
direction
speed
MPH
gust
MPH
rain 1hr
in
rain 24hr
in
rain mn
in
humidity
%
barometer
mb
20190524204712 84 64 7.0 15.0 0.00 0.00 0.00 63 1019.5
20190524203811 84 83 8.0 14.0 0.00 0.00 0.00 62 1019.5
20190524202912 84 63 8.0 15.0 0.00 0.00 0.00 62 1019.5
20190524202012 85 75 6.0 13.0 0.00 0.00 0.00 63 1019.6
20190524201112 84 75 7.0 16.0 0.00 0.00 0.00 60 1019.7
20190524200212 85 82 8.0 14.0 0.00 0.00 0.00 62 1019.8
20190524195312 85 81 7.0 14.0 0.00 0.00 0.00 59 1019.8
20190524194412 85 57 7.0 14.0 0.00 0.00 0.00 61 1019.9
20190524193512 85 78 8.0 15.0 0.00 0.00 0.00 61 1020.0
20190524192612 85 67 7.0 15.0 0.00 0.00 0.00 59 1020.0
20190524191712 85 79 8.0 16.0 0.00 0.00 0.00 60 1020.1
20190524190812 85 75 8.0 16.0 0.00 0.00 0.00 59 1020.1
20190524185912 85 74 7.0 14.0 0.00 0.00 0.00 60 1020.1
20190524185011 86 71 7.0 14.0 0.00 0.00 0.00 58 1020.3
20190524184112 86 79 7.0 13.0 0.00 0.00 0.00 59 1020.2
20190524183212 85 82 7.0 15.0 0.00 0.00 0.00 61 1020.2
20190524182312 85 89 8.0 16.0 0.00 0.00 0.00 59 1020.2
20190524181412 86 77 6.0 15.0 0.00 0.00 0.00 57 1020.3
20190524180512 86 71 8.0 14.0 0.00 0.00 0.00 59 1020.5
20190524175612 86 64 7.0 15.0 0.00 0.00 0.00 57 1020.5
20190524174712 86 73 6.0 14.0 0.00 0.00 0.00 60 1020.5
20190524173812 86 85 7.0 14.0 0.00 0.00 0.00 58 1020.5
20190524172912 86 79 7.0 14.0 0.00 0.00 0.00 59 1020.4
20190524172012 86 80 7.0 14.0 0.00 0.00 0.00 59 1020.6
20190524171112 86 76 7.0 15.0 0.00 0.00 0.00 57 1020.7
20190524170211 86 82 7.0 15.0 0.00 0.00 0.00 58 1020.7
20190524165311 87 70 6.0 15.0 0.00 0.00 0.00 58 1020.8
20190524164411 86 67 7.0 14.0 0.00 0.00 0.00 57 1020.9
20190524163511 86 78 7.0 13.0 0.00 0.00 0.00 57 1020.9
20190524162612 86 90 7.0 13.0 0.00 0.00 0.00 58 1021.0
20190524161711 86 82 6.0 15.0 0.00 0.00 0.00 56 1021.1
20190524160811 86 92 6.0 12.0 0.00 0.00 0.00 59 1021.2
20190524155911 86 97 6.0 13.0 0.00 0.00 0.00 56 1021.1
20190524155011 86 82 5.0 11.0 0.00 0.00 0.00 57 1021.1
20190524154111 85 90 6.0 13.0 0.00 0.00 0.00 57 1021.1
20190524153211 84 101 6.0 11.0 0.00 0.00 0.00 57 1021.0
20190524152311 85 94 7.0 12.0 0.00 0.00 0.00 59 1021.0
20190524151412 85 92 6.0 11.0 0.00 0.00 0.00 57 1021.0
20190524150512 84 101 7.0 13.0 0.00 0.00 0.00 57 1020.9
20190524145611 84 92 7.0 13.0 0.00 0.00 0.00 57 1020.8
20190524144711 84 103 7.0 14.0 0.00 0.00 0.00 58 1020.7
20190524143811 84 104 6.0 13.0 0.00 0.00 0.00 58 1020.8
20190524142911 84 108 6.0 14.0 0.00 0.00 0.00 58 1020.6
20190524142012 84 115 6.0 13.0 0.00 0.00 0.00 58 1020.6
20190524141111 83 113 5.0 11.0 0.00 0.00 0.00 59 1020.4
20190524140212 82 117 7.0 14.0 0.00 0.00 0.00 58 1020.5
20190524135312 82 115 8.0 14.0 0.00 0.00 0.00 59 1020.4
20190524134411 83 113 7.0 14.0 0.00 0.00 0.00 58 1020.3
20190524133511 82 113 7.0 13.0 0.00 0.00 0.00 61 1020.3
20190524132612 82 118 8.0 13.0 0.00 0.00 0.00 61 1020.2
20190524131711 82 117 7.0 14.0 0.00 0.00 0.00 61 1020.2
20190524130811 82 119 8.0 13.0 0.00 0.00 0.00 62 1020.1
20190524125911 81 121 6.0 12.0 0.00 0.00 0.00 65 1020.0
20190524125011 80 119 5.0 9.0 0.00 0.00 0.00 63 1019.9
20190524124111 80 120 6.0 10.0 0.00 0.00 0.00 62 1019.9
20190524123211 80 121 5.0 11.0 0.00 0.00 0.00 64 1019.8
20190524122311 80 125 5.0 11.0 0.00 0.00 0.00 62 1019.8
20190524121411 80 126 5.0 11.0 0.00 0.00 0.00 62 1019.8
20190524120511 80 124 7.0 12.0 0.00 0.00 0.00 61 1019.7
20190524115611 79 122 7.0 14.0 0.00 0.00 0.00 62 1019.7
20190524114711 78 124 7.0 14.0 0.00 0.00 0.00 63 1019.7
20190524113811 78 126 7.0 14.0 0.00 0.00 0.00 66 1019.7
20190524112911 77 129 7.0 12.0 0.00 0.00 0.00 68 1019.5
20190524112011 76 125 7.0 13.0 0.00 0.00 0.00 68 1019.4
20190524111111 76 124 9.0 15.0 0.00 0.00 0.00 68 1019.4
20190524110211 76 124 11.0 18.0 0.00 0.00 0.00 67 1019.3
20190524105312 76 124 9.0 17.0 0.00 0.00 0.00 69 1019.2
20190524104411 76 126 10.0 18.0 0.00 0.00 0.00 71 1019.3
20190524103511 76 116 9.0 16.0 0.00 0.00 0.00 72 1019.3
20190524102611 76 116 7.0 14.0 0.00 0.00 0.00 72 1019.2
20190524101711 76 115 7.0 13.0 0.00 0.00 0.00 72 1019.2
20190524100812 76 116 9.0 15.0 0.00 0.00 0.00 71 1019.1
20190524095911 76 119 8.0 15.0 0.00 0.00 0.00 73 1019.1
20190524095011 76 120 7.0 13.0 0.00 0.00 0.00 73 1019.0
20190524094111 76 123 7.0 13.0 0.00 0.00 0.00 70 1019.2
20190524093211 76 123 8.0 13.0 0.00 0.00 0.00 69 1019.1
20190524092311 76 124 7.0 15.0 0.00 0.00 0.00 71 1019.0
20190524091411 76 127 8.0 14.0 0.00 0.00 0.00 69 1019.0
20190524090511 76 127 9.0 14.0 0.00 0.00 0.00 68 1019.1
20190524085611 76 128 8.0 14.0 0.00 0.00 0.00 68 1019.0
20190524084711 76 126 9.0 16.0 0.00 0.00 0.00 67 1019.1
20190524083811 76 128 10.0 16.0 0.00 0.00 0.00 67 1019.2
20190524082911 76 129 10.0 18.0 0.00 0.00 0.00 68 1019.2
20190524082011 76 126 9.0 15.0 0.00 0.00 0.00 70 1019.3
20190524081111 76 121 8.0 16.0 0.00 0.00 0.00 70 1019.5
20190524080212 76 119 8.0 13.0 0.00 0.00 0.00 69 1019.3
20190524075311 76 118 8.0 14.0 0.00 0.00 0.00 69 1019.3
20190524074411 76 121 8.0 14.0 0.00 0.00 0.00 69 1019.3
20190524073511 76 121 8.0 16.0 0.00 0.00 0.00 69 1019.4
20190524072611 76 119 8.0 16.0 0.00 0.00 0.00 69 1019.5
20190524071711 76 118 8.0 15.0 0.00 0.00 0.00 68 1019.6
20190524070811 76 120 8.0 15.0 0.00 0.00 0.00 68 1019.6
20190524065911 76 118 9.0 17.0 0.00 0.00 0.00 69 1019.6
20190524065011 76 114 10.0 16.0 0.00 0.00 0.00 69 1019.7
20190524064111 76 117 10.0 18.0 0.00 0.00 0.00 69 1019.6
20190524063211 76 117 10.0 16.0 0.00 0.00 0.00 71 1019.7
20190524062311 77 118 9.0 16.0 0.00 0.00 0.00 72 1019.9
20190524061411 77 115 9.0 18.0 0.00 0.00 0.00 70 1019.9
20190524060511 77 113 8.0 15.0 0.00 0.00 0.00 69 1020.0
20190524055611 77 121 6.0 13.0 0.00 0.00 0.00 69 1020.2
20190524054711 77 122 8.0 14.0 0.00 0.00 0.00 68 1020.2
20190524053811 77 124 9.0 14.0 0.00 0.00 0.00 68 1020.4
20190524052911 77 123 9.0 16.0 0.00 0.00 0.00 68 1020.4
20190524052011 77 126 11.0 19.0 0.00 0.00 0.00 66 1020.5
20190524051111 77 126 10.0 17.0 0.00 0.00 0.00 68 1020.5
20190524050211 77 127 10.0 16.0 0.00 0.00 0.00 69 1020.6
20190524045311 77 127 9.0 16.0 0.00 0.00 0.00 69 1020.6
20190524044411 77 121 9.0 20.0 0.00 0.00 0.00 68 1020.7
20190524043511 77 125 10.0 18.0 0.00 0.00 0.00 68 1020.8
20190524042611 77 124 10.0 16.0 0.00 0.00 0.00 68 1020.9
20190524041711 77 125 10.0 17.0 0.00 0.00 0.00 66 1021.0
20190524040811 77 123 10.0 19.0 0.00 0.00 0.00 67 1021.0
20190524035911 77 123 10.0 19.0 0.00 0.00 0.00 70 1021.0
20190524035011 77 126 12.0 19.0 0.00 0.00 0.00 67 1021.1
20190524034111 78 121 10.0 19.0 0.00 0.00 0.00 68 1021.1
20190524033211 78 116 10.0 18.0 0.00 0.00 0.00 67 1021.2
20190524032311 78 112 9.0 17.0 0.00 0.00 0.00 67 1021.1
20190524031411 78 110 9.0 19.0 0.00 0.00 0.00 68 1021.1
20190524030511 78 116 9.0 17.0 0.00 0.00 0.00 67 1021.1
20190524025611 78 114 10.0 19.0 0.00 0.00 0.00 68 1021.1
20190524024711 78 114 12.0 20.0 0.00 0.00 0.00 67 1021.0
20190524023811 78 117 11.0 18.0 0.00 0.00 0.00 70 1021.0
20190524022911 78 118 10.0 18.0 0.00 0.00 0.00 70 1020.9
20190524022011 78 118 10.0 18.0 0.00 0.00 0.00 71 1020.7
20190524021111 78 121 11.0 22.0 0.00 0.00 0.00 69 1020.7
20190524020211 78 117 10.0 19.0 0.00 0.00 0.00 70 1020.7
20190524015311 78 115 10.0 19.0 0.00 0.00 0.00 68 1020.7
20190524014411 78 115 11.0 19.0 0.00 0.00 0.00 67 1020.7
20190524013511 78 118 10.0 17.0 0.00 0.00 0.00 68 1020.7
20190524012611 78 119 10.0 20.0 0.00 0.00 0.00 66 1020.6
20190524011711 78 120 10.0 17.0 0.00 0.00 0.00 69 1020.7
20190524010811 78 119 9.0 18.0 0.00 0.00 0.00 67 1020.5
20190524005911 78 102 9.0 16.0 0.00 0.00 0.00 70 1020.6
20190524005011 78 104 8.0 16.0 0.00 0.00 0.00 68 1020.6
20190524004111 78 111 10.0 20.0 0.00 0.00 0.00 68 1020.6
20190524003211 78 106 9.0 18.0 0.00 0.00 0.00 69 1020.6
20190524002311 78 110 10.0 19.0 0.00 0.00 0.00 70 1020.5
20190524001411 79 110 8.0 19.0 0.00 0.00 0.00 70 1020.6
20190524000511 79 110 10.0 19.0 0.00 0.00 0.00 69 1020.5
20190523235611 79 108 9.0 20.0 0.00 0.00 0.00 70 1020.5
20190523234711 79 110 9.0 15.0 0.00 0.00 0.00 68 1020.4
20190523233811 79 93 8.0 19.0 0.00 0.00 0.00 69 1020.4
20190523232911 79 96 9.0 17.0 0.00 0.00 0.00 68 1020.3
20190523232011 79 101 9.0 17.0 0.00 0.00 0.00 67 1020.3
20190523231111 80 94 9.0 20.0 0.00 0.00 0.00 67 1020.3
20190523230211 80 98 10.0 20.0 0.00 0.00 0.00 68 1020.3
20190523225311 80 97 11.0 20.0 0.00 0.00 0.00 68 1020.2
20190523224411 80 97 10.0 22.0 0.00 0.00 0.00 69 1020.2
20190523223511 80 97 10.0 22.0 0.00 0.00 0.00 69 1020.4
20190523222611 80 106 11.0 19.0 0.00 0.00 0.00 69 1020.3
20190523221711 81 99 10.0 18.0 0.00 0.00 0.00 69 1020.3
20190523220811 82 96 10.0 18.0 0.00 0.00 0.00 70 1020.3
20190523215911 82 94 9.0 17.0 0.00 0.00 0.00 68 1020.4
20190523215011 82 96 9.0 18.0 0.00 0.00 0.00 67 1020.4
20190523214111 82 96 8.0 17.0 0.00 0.00 0.00 68 1020.5
20190523213211 82 97 10.0 17.0 0.00 0.00 0.00 68 1020.4
20190523212311 83 99 10.0 18.0 0.00 0.00 0.00 69 1020.4
20190523211411 84 90 9.0 19.0 0.00 0.00 0.00 68 1020.5
20190523210511 85 86 8.0 15.0 0.00 0.00 0.00 66 1020.5
20190523205611 84 87 8.0 15.0 0.00 0.00 0.00 65 1020.6